{"data":{"norad_id":62339,"intl_designator":"2024-242A","name":"GPS BIII-7  (PRN 01)","alt_names":[],"object_type":"PAYLOAD","status":"ACTIVE","operator":null,"country":"US","launch_date":"2024-12-17","launch_site_code":"AFETR","launch_vehicle":null,"mission":null,"orbit_class":"UNKNOWN","rcs_meters":null,"size_class":null,"mass_kg":null,"dimensions":null,"purposes":["nav"],"wikipedia_slug":null,"has_3d_model":false,"image_url":null,"decayed_at":null,"tle_current":{"epoch":"2026-05-23T16:00:21.083616Z","epoch_age_seconds":186730,"freshness":"STALE","line1":"1 62339U 24242A   26143.66691069 -.00000087  00000+0  00000+0 0  9990","line2":"2 62339  54.8596 335.1744 0017373   3.8345 179.6490  2.00571082 10768","mean_motion":2.00571082,"eccentricity":0.0017373,"inclination_deg":54.8596,"raan_deg":335.1744,"arg_perigee_deg":3.8345,"mean_anomaly_deg":179.649,"bstar":0,"rev_number":1076,"period_min":717.94995850897,"perigee_km":20135.408492248,"apogee_km":20227.692782914,"semimajor_km":26559.687637581,"source":"CELESTRAK","updated_at":"2026-05-25T13:38:23.768759Z"}}}